[[{"header":{"parameterUnit":"m.s-1","parameterCategory":1,"la1":30.2991,"la2":30.254,"lo1":-89.0895,"lo2":-89.0444,"dy":0.0017,"dx":0.0017,"nx":28,"ny":28,"refTime":"2024-05-11T21:00:00:Z","depth":0,"parameterNumber":2,"parameterNumberName":"U-component_of_WINDS"},"data":[0,0,0,0,0,0,0,0,0,0,0,0,0,0,0,0,0,0,0,0,0,0,0,0,0,0,0,0,0,0,0,0,0,0,0,0,0,0,0,0,0,0,0,0,0,0,0,0,0,0,0,0,0,0,0,0,0,0,-2.8568,-2.8567,0,-2.8538,-2.8538,-2.8538,-2.8468,-2.8466,-2.8465,-2.8463,-2.8436,-2.8437,-2.8437,0,0,0,0,0,0,0,0,0,0,0,0,0,-2.8566,-2.8566,-2.8568,-2.8567,-2.8567,-2.8538,-2.8538,-2.8538,-2.8468,-2.8466,-2.8465,-2.8463,-2.8436,-2.8436,-2.8437,0,0,0,0,0,0,0,0,0,0,0,0,0,-2.8555,-2.8566,-2.8568,-2.8529,-2.8525,-2.8539,-2.8538,-2.8538,-2.8468,-2.8466,-2.8464,-2.8462,-2.8436,-2.8436,-2.8437,-2.8487,0,0,-2.844,-2.8441,0,0,0,0,0,0,0,0,-2.8555,-2.8555,-2.8535,-2.8531,-2.8527,-2.8504,-2.8527,-2.8521,-2.8469,-2.849,-2.8463,-2.8461,-2.8461,-2.8459,-2.8459,-2.8486,-2.8485,-2.844,-2.8441,-2.8441,-2.8442,0,0,0,0,0,0,0,-2.8556,-2.8556,-2.8556,-2.8535,-2.853,-2.8513,-2.8509,-2.8526,-2.8488,-2.8488,-2.8483,-2.848,-2.8458,-2.8458,-2.8458,-2.8484,-2.844,-2.8441,-2.8442,-2.8442,-2.8552,-2.8554,0,0,0,0,0,0,-2.8562,-2.8557,-2.8557,-2.8555,-2.8536,-2.8515,-2.8511,-2.8514,-2.8488,-2.8482,-2.8482,-2.8477,-2.8458,-2.8457,-2.8456,-2.8514,-2.8441,-2.8442,-2.8443,-2.8549,-2.8552,-2.8555,0,0,0,0,0,0,-2.8563,-2.8563,-2.8558,-2.8555,-2.8553,-2.8518,-2.8522,-2.8515,-2.8514,-2.8483,-2.8476,-2.8489,-2.8456,-2.8455,-2.848,-2.8512,-2.8443,-2.8443,-2.8546,-2.855,-2.8553,-2.8629,0,0,0,0,0,0,-2.8563,-2.8563,-2.8582,-2.8556,-2.8553,-2.8582,-2.8524,-2.8516,-2.8516,-2.8509,-2.8488,-2.8482,-2.8454,-2.8479,-2.8481,-2.8512,-2.8444,-2.8543,-2.8548,-2.8552,-2.8623,-2.8634,-2.8644,0,0,0,0,0,-2.8563,-2.8604,-2.8583,-2.8583,-2.8575,-2.8584,-2.8583,-2.8549,-2.8519,-2.8537,-2.8517,-2.8483,-2.8508,-2.8482,-2.8484,-2.8516,-2.8541,-2.8547,-2.8552,-2.8619,-2.8632,-2.8644,0,0,0,0,0,0,-2.8636,-2.86,-2.8576,-2.861,-2.8601,-2.8572,-2.8594,-2.8564,-2.8564,-2.8557,-2.8516,-2.8512,-2.8543,-2.8531,-2.8503,-2.8563,-2.8519,-2.8525,-2.8569,-2.8582,-2.8592,-2.8595,-2.8445,0,0,0,0,0,-2.8656,-2.8665,-2.8634,-2.8667,-2.8663,-2.863,-2.8632,-2.8607,-2.8596,-2.8592,-2.8573,-2.8565,-2.857,-2.8575,-2.8579,-2.8621,-2.8616,-2.8643,-2.8654,-2.8662,-2.8668,-2.869,-2.8703,-2.8572,-2.8572,-2.8572,0,0,-2.8698,-2.8679,-2.8688,-2.8681,-2.8671,-2.8683,-2.8627,-2.8641,-2.865,-2.8594,-2.8617,-2.8603,-2.859,-2.8624,-2.8638,-2.8616,-2.8703,-2.8669,-2.8676,-2.8677,-2.8697,-2.871,-2.8721,-2.8575,-2.8575,-2.8574,0,0,-2.878,-2.8766,-2.8793,-2.8783,-2.8768,-2.8745,-2.8752,-2.8727,-2.8716,-2.8738,-2.8696,-2.8706,-2.8717,-2.871,-2.8707,-2.8787,-2.8756,-2.8789,-2.8843,-2.8865,-2.8876,-2.8885,-2.8914,-2.8925,-2.8795,-2.8795,-2.8795,0,-2.8834,-2.8849,-2.881,-2.8828,-2.8826,-2.8775,-2.8802,-2.8795,-2.8782,-2.8783,-2.8757,-2.877,-2.8758,-2.879,-2.8809,-2.8809,-2.8816,-2.8792,-2.8877,-2.8886,-2.8894,-2.8921,-2.8932,-2.8799,-2.8799,-2.8798,-2.8798,0,-2.8917,-2.8928,-2.8951,-2.8939,-2.894,-2.8962,-2.8928,-2.8934,-2.8908,-2.8889,-2.8912,-2.8895,-2.8895,-2.89,-2.8876,-2.8929,-2.8916,-2.8884,-2.884,-2.8911,-2.8936,-2.8947,-2.8805,-2.8804,-2.8802,-2.8801,0,0,-2.9045,-2.9011,-2.902,-2.9014,-2.8993,-2.9002,-2.9022,-2.9021,-2.9027,-2.902,-2.9036,-2.9046,-2.9017,-2.9015,-2.8989,-2.9008,-2.9073,-2.8974,-2.8973,-2.8994,-2.9132,-2.9157,-2.917,-2.9052,-2.9054,-2.9055,-2.9134,0,-2.9123,-2.9155,-2.9121,-2.916,-2.917,-2.9122,-2.9139,-2.9129,-2.9111,-2.9118,-2.9098,-2.9106,-2.9066,-2.9065,-2.9081,-2.9062,-2.9101,-2.9055,-2.9068,-2.9069,-2.9074,-2.9183,-2.9209,-2.9284,-2.9143,-2.9145,-2.9146,0,-2.9219,-2.9215,-2.9255,-2.9232,-2.9235,-2.9252,-2.9248,-2.9254,-2.9242,-2.9227,-2.9225,-2.9193,-2.9212,-2.9168,-2.9194,-2.9164,-2.9167,-2.9158,-2.916,-2.9161,-2.9113,-2.9188,-2.9307,-2.9319,-2.9161,-2.916,-2.9159,0,-2.931,-2.9315,-2.934,-2.9336,-2.9309,-2.9322,-2.9312,-2.9297,-2.9298,-2.9295,-2.9296,-2.9296,-2.9296,-2.9297,-2.9266,-2.9236,-2.9297,-2.925,-2.9286,-2.9287,-2.9302,-2.9302,-2.9425,-2.9302,-2.9302,-2.9302,-2.9302,0,-2.9402,-2.9429,-2.9381,-2.9396,-2.9425,-2.9385,-2.9415,-2.94,-2.9387,-2.9399,-2.9357,-2.937,-2.9328,-2.9336,-2.9312,-2.9338,-2.9339,-2.9328,-2.9322,-2.9333,-2.9335,-2.9336,-2.933,-2.9305,-2.9304,-2.9304,-2.9303,0,-2.9509,-2.9478,-2.9502,-2.9474,-2.9468,-2.9491,-2.9467,-2.9481,-2.946,-2.9476,-2.9477,-2.9445,-2.9452,-2.9422,-2.9424,-2.9408,-2.9447,-2.9431,-2.9452,-2.9447,-2.9486,-2.9484,-2.9615,-2.9631,-2.9497,-2.9499,-2.95,0,-2.9571,-2.959,-2.9564,-2.9569,-2.956,-2.9569,-2.957,-2.9531,-2.9535,-2.9522,-2.9537,-2.9541,-2.9543,-2.9557,-2.9535,-2.9537,-2.9521,-2.9567,-2.9522,-2.9532,-2.9524,-2.9524,-2.9526,-2.9578,-2.9579,-2.9581,-2.9582,0,-2.9683,-2.9667,-2.967,-2.9667,-2.967,-2.9666,-2.966,-2.9666,-2.9625,-2.9631,-2.9638,-2.9639,-2.9641,-2.9646,-2.9644,-2.9633,-2.9602,-2.9596,-2.9605,-2.9617,-2.9628,-2.9624,-2.9479,-2.9593,-2.9592,-2.9591,-2.9591,-2.959,-2.977,-2.9786,-2.977,-2.9775,-2.9765,-2.9761,-2.9772,-2.9752,-2.9757,-2.9755,-2.9732,-2.9744,-2.9731,-2.9724,-2.9717,-2.9726,-2.9705,-2.9718,-2.9721,-2.9725,-2.9732,-2.9626,-2.9725,-2.9725,-2.9725,-2.9724,-2.9724,0,-2.9882,-2.9869,-2.9874,-2.9866,-2.987,-2.9838,-2.9829,-2.9835,-2.9845,-2.9835,-2.9837,-2.9846,-2.985,-2.9828,-2.9829,-2.9841,-2.9827,-2.9843,-2.9843,-2.9841,-2.9751,-2.9744,-2.9855,-2.9855,-2.9855,-2.9855,-2.9855,-2.9855,-2.9941,-2.9965,-2.9947,-2.9966,-2.9953,-2.9964,-2.9962,-2.9957,-2.9949,-2.996,-2.9963,-2.9948,-2.9933,-2.9933,-2.9936,-2.993,-2.9933,-2.9955,-2.9943,-2.986,-2.9847,-2.9835,-2.9828,-2.9956,-2.9956,-3.0033,-3.0034,-3.0034]},{"header":{"parameterUnit":"m.s-1","parameterCategory":1,"la1":30.2991,"la2":30.254,"lo1":-89.0895,"lo2":-89.0444,"dy":0.0017,"dx":0.0017,"nx":28,"ny":28,"refTime":"2024-05-11T21:00:00:Z","depth":0,"parameterNumber":3,"parameterNumberName":"V-component_of_WINDS"},"data":[0,0,0,0,0,0,0,0,0,0,0,0,0,0,0,0,0,0,0,0,0,0,0,0,0,0,0,0,0,0,0,0,0,0,0,0,0,0,0,0,0,0,0,0,0,0,0,0,0,0,0,0,0,0,0,0,0,0,-4.1396,-4.1397,0,-4.1414,-4.1415,-4.1415,-4.1365,-4.1363,-4.1362,-4.136,-4.1376,-4.1378,-4.138,0,0,0,0,0,0,0,0,0,0,0,0,0,-4.1316,-4.1318,-4.1396,-4.1397,-4.1397,-4.1414,-4.1415,-4.1415,-4.1365,-4.1363,-4.1361,-4.1359,-4.1375,-4.1377,-4.138,0,0,0,0,0,0,0,0,0,0,0,0,0,-4.1344,-4.1318,-4.1396,-4.1374,-4.1372,-4.1414,-4.1415,-4.1415,-4.1365,-4.1363,-4.1361,-4.1359,-4.1375,-4.1377,-4.138,-4.1443,0,0,-4.1389,-4.139,0,0,0,0,0,0,0,0,-4.1343,-4.1347,-4.1377,-4.1376,-4.1374,-4.1385,-4.1392,-4.1424,-4.1366,-4.1368,-4.136,-4.1357,-4.1381,-4.1383,-4.1391,-4.1444,-4.1445,-4.1389,-4.139,-4.1392,-4.1392,0,0,0,0,0,0,0,-4.1341,-4.1346,-4.1403,-4.1378,-4.1376,-4.1362,-4.1364,-4.1398,-4.1387,-4.1368,-4.1364,-4.1367,-4.1379,-4.1389,-4.1391,-4.1445,-4.1389,-4.1391,-4.1393,-4.1394,-4.1551,-4.1554,0,0,0,0,0,0,-4.1342,-4.1345,-4.1403,-4.1404,-4.1352,-4.1366,-4.1367,-4.1384,-4.1386,-4.1385,-4.1369,-4.1365,-4.1385,-4.1388,-4.1391,-4.1466,-4.1392,-4.1394,-4.1396,-4.1549,-4.1552,-4.1554,0,0,0,0,0,0,-4.1341,-4.1348,-4.1402,-4.1373,-4.1379,-4.137,-4.1388,-4.1385,-4.1395,-4.1388,-4.1385,-4.1381,-4.1383,-4.1388,-4.1431,-4.1466,-4.1395,-4.1398,-4.1546,-4.155,-4.1553,-4.1616,0,0,0,0,0,0,-4.1338,-4.1347,-4.1372,-4.1374,-4.1381,-4.1443,-4.1391,-4.1387,-4.14,-4.1394,-4.1398,-4.1396,-4.1382,-4.1427,-4.1434,-4.1469,-4.14,-4.1543,-4.1547,-4.1552,-4.1611,-4.1622,-4.1631,0,0,0,0,0,-4.1336,-4.1389,-4.1374,-4.1381,-4.1412,-4.1445,-4.1448,-4.1431,-4.1403,-4.1427,-4.1423,-4.1396,-4.1461,-4.1432,-4.1439,-4.1475,-4.154,-4.1546,-4.1551,-4.1607,-4.162,-4.1631,0,0,0,0,0,0,-4.139,-4.1388,-4.1372,-4.1427,-4.1437,-4.1436,-4.1466,-4.1446,-4.1463,-4.1457,-4.1434,-4.1435,-4.1483,-4.1483,-4.1451,-4.1537,-4.1496,-4.1503,-4.1535,-4.1547,-4.1557,-4.1556,-4.1403,0,0,0,0,0,-4.1408,-4.1436,-4.1433,-4.1482,-4.1487,-4.1476,-4.149,-4.1476,-4.1484,-4.1488,-4.1486,-4.1495,-4.1517,-4.1532,-4.1552,-4.1611,-4.1611,-4.1639,-4.1649,-4.1657,-4.1664,-4.1695,-4.1707,-4.1573,-4.1573,-4.1573,0,0,-4.1446,-4.1449,-4.1468,-4.1493,-4.1498,-4.1527,-4.148,-4.1512,-4.1532,-4.1492,-4.1534,-4.1533,-4.1541,-4.1592,-4.1615,-4.1594,-4.1701,-4.1664,-4.1671,-4.1673,-4.1702,-4.1715,-4.1726,-4.1577,-4.1576,-4.1575,0,0,-4.153,-4.1535,-4.1577,-4.1584,-4.1593,-4.1586,-4.1596,-4.1598,-4.1597,-4.1638,-4.1609,-4.1632,-4.1671,-4.1678,-4.1687,-4.1774,-4.175,-4.1781,-4.1833,-4.1864,-4.1874,-4.1884,-4.1915,-4.1927,-4.1788,-4.1788,-4.1788,0,-4.1576,-4.1619,-4.1601,-4.1635,-4.1647,-4.1613,-4.1655,-4.1662,-4.1677,-4.1685,-4.1662,-4.171,-4.1713,-4.1766,-4.1787,-4.1795,-4.1806,-4.1781,-4.1874,-4.1884,-4.1892,-4.1922,-4.1933,-4.1791,-4.1791,-4.1791,-4.179,0,-4.1675,-4.1705,-4.1737,-4.1754,-4.177,-4.1807,-4.1794,-4.1812,-4.1796,-4.1791,-4.1833,-4.1836,-4.1856,-4.1867,-4.1852,-4.1918,-4.1905,-4.1878,-4.1837,-4.1909,-4.1936,-4.1948,-4.1797,-4.1795,-4.1794,-4.1793,0,0,-4.1794,-4.1801,-4.1813,-4.182,-4.1828,-4.1851,-4.1887,-4.1907,-4.1923,-4.1934,-4.1964,-4.1997,-4.1973,-4.1983,-4.1968,-4.1995,-4.2065,-4.1965,-4.1965,-4.1984,-4.2138,-4.2158,-4.2171,-4.2049,-4.2051,-4.2053,-4.2137,0,-4.1877,-4.1941,-4.1925,-4.1987,-4.2015,-4.1983,-4.2014,-4.2022,-4.2018,-4.2039,-4.2034,-4.2059,-4.2025,-4.203,-4.2056,-4.2051,-4.2095,-4.2045,-4.2076,-4.2077,-4.2075,-4.2186,-4.2207,-4.2287,-4.2148,-4.2149,-4.2151,0,-4.1983,-4.2,-4.2066,-4.207,-4.2081,-4.2109,-4.2127,-4.2148,-4.2156,-4.2151,-4.2163,-4.2143,-4.2178,-4.2135,-4.2183,-4.2149,-4.216,-4.216,-4.2163,-4.2165,-4.2119,-4.2192,-4.2312,-4.2324,-4.2167,-4.2166,-4.2165,0,-4.2064,-4.2103,-4.2147,-4.2155,-4.216,-4.2181,-4.2184,-4.219,-4.2203,-4.2218,-4.2227,-4.2246,-4.2256,-4.2271,-4.2256,-4.2227,-4.2306,-4.2262,-4.2302,-4.2303,-4.2321,-4.232,-4.2445,-4.2328,-4.2328,-4.2327,-4.2327,0,-4.2159,-4.2201,-4.2184,-4.2211,-4.2256,-4.2238,-4.2283,-4.2282,-4.2287,-4.2313,-4.2286,-4.2311,-4.229,-4.2313,-4.2301,-4.2342,-4.2347,-4.2344,-4.234,-4.2347,-4.2347,-4.2354,-4.2348,-4.2331,-4.233,-4.2329,-4.2329,0,-4.2258,-4.2248,-4.2294,-4.2296,-4.2297,-4.2331,-4.2332,-4.2356,-4.235,-4.2383,-4.239,-4.238,-4.2406,-4.2393,-4.2418,-4.2411,-4.2464,-4.2453,-4.2462,-4.2459,-4.25,-4.2497,-4.2635,-4.2652,-4.2523,-4.2524,-4.2526,0,-4.2319,-4.2351,-4.2356,-4.2372,-4.2377,-4.2403,-4.2417,-4.24,-4.2415,-4.2427,-4.245,-4.2474,-4.2491,-4.2533,-4.2528,-4.2548,-4.2537,-4.2584,-4.254,-4.2545,-4.2538,-4.2537,-4.254,-4.2593,-4.2594,-4.2596,-4.2597,0,-4.243,-4.2424,-4.2446,-4.2466,-4.2484,-4.2499,-4.2511,-4.2525,-4.2508,-4.2527,-4.2553,-4.2567,-4.2594,-4.2617,-4.2634,-4.2636,-4.2614,-4.2611,-4.2621,-4.2628,-4.2632,-4.2631,-4.2487,-4.2608,-4.2606,-4.2606,-4.2605,-4.2605,-4.2512,-4.2538,-4.2547,-4.2572,-4.258,-4.2592,-4.2616,-4.2613,-4.2635,-4.2656,-4.2644,-4.2675,-4.2682,-4.2703,-4.2708,-4.2731,-4.2712,-4.2727,-4.2731,-4.2735,-4.2741,-4.2628,-4.2734,-4.2733,-4.2733,-4.2733,-4.2733,0,-4.2622,-4.2626,-4.2649,-4.2668,-4.2688,-4.2665,-4.2678,-4.2696,-4.2724,-4.2732,-4.2751,-4.2781,-4.2803,-4.28,-4.282,-4.284,-4.283,-4.2846,-4.2844,-4.2845,-4.2756,-4.2746,-4.2853,-4.2853,-4.2853,-4.2853,-4.2853,-4.2853,-4.2681,-4.2725,-4.272,-4.2767,-4.277,-4.2801,-4.281,-4.2821,-4.2828,-4.2863,-4.2882,-4.288,-4.2884,-4.2905,-4.2924,-4.2922,-4.2931,-4.2951,-4.2946,-4.2863,-4.2851,-4.284,-4.283,-4.2953,-4.2953,-4.3033,-4.3033,-4.3034]}]]